F6JSP-13 Weather Reports


time (UTC)temp
F
wind
direction
speed
knots
gust
knots
rain 1hr
in
rain 24hr
in
rain mn
in
humidity
%
barometer
mb
20260504215004 58 330 1.7 4.3 0.00 0.46 0.00 93 1009.0
20260504214504 58 340 1.7 4.3 0.00 0.46 0.00 93 1009.0
20260504214004 58 334 1.7 4.3 0.00 0.46 0.00 93 1009.0
20260504213504 58 316 1.7 5.2 0.00 0.46 0.00 92 1008.9
20260504213004 58 330 1.7 4.3 0.00 0.46 0.00 92 1009.3
20260504212504 58 332 1.7 2.6 0.00 0.46 0.00 92 1009.1
20260504212005 58 329 0.9 4.3 0.00 0.46 0.00 92 1009.0
20260504211004 58 334 1.7 4.3 0.00 0.46 0.00 92 1009.3
20260504210504 58 341 0.9 4.3 0.00 0.46 0.00 92 1009.1
20260504210004 58 341 1.7 4.3 0.00 0.46 0.00 92 1009.0
20260504205504 58 338 1.7 4.3 0.00 0.46 0.00 91 1009.2
20260504204504 58 327 1.7 5.2 0.00 0.46 0.00 91 1009.1
20260504204004 58 324 1.7 5.2 0.00 0.46 0.00 91 1009.1
20260504203504 58 326 1.7 5.2 0.00 0.46 0.00 91 1009.3
20260504203004 58 332 2.6 5.2 0.00 0.46 0.00 91 1009.3
20260504202504 58 331 1.7 4.3 0.00 0.46 0.00 91 1009.1
20260504202004 58 345 1.7 4.3 0.00 0.46 0.00 90 1009.3
20260504201506 58 341 0.9 4.3 0.00 0.46 0.00 90 1009.3
20260504200006 58 338 1.7 5.2 0.00 0.46 0.00 89 1009.0
20260504195505 58 326 1.7 5.2 0.00 0.46 0.00 89 1008.9
20260504195006 58 332 1.7 4.3 0.00 0.46 0.00 88 1008.9
20260504194006 59 345 1.7 6.1 0.00 0.46 0.00 87 1008.7
20260504193505 59 352 1.7 6.1 0.00 0.46 0.00 87 1008.7
20260504192006 59 3 2.6 7.8 0.00 0.46 0.00 85 1008.9
20260504191506 59 348 2.6 6.1 0.00 0.46 0.00 85 1008.5
20260504191005 59 1 0.9 6.1 0.00 0.46 0.00 84 1008.8
20260504190006 59 357 2.6 7.0 0.00 0.46 0.00 84 1008.7
20260504185506 59 341 2.6 6.1 0.00 0.46 0.00 85 1008.5
20260504185006 59 353 2.6 7.0 0.00 0.46 0.00 86 1008.5
20260504184507 59 346 2.6 6.1 0.00 0.46 0.00 87 1009.0
20260504184006 59 1 1.7 5.2 0.00 0.46 0.00 87 1008.7
20260504183506 59 335 1.7 4.3 0.00 0.46 0.00 87 1008.9
20260504183006 60 342 1.7 5.2 0.00 0.46 0.00 87 1009.0
20260504182008 60 333 2.6 6.1 0.00 0.46 0.00 87 1008.8
20260504181506 60 333 2.6 6.1 0.00 0.46 0.00 87 1008.8
20260504181005 60 331 1.7 4.3 0.00 0.46 0.00 88 1008.8
20260504180505 60 331 1.7 6.1 0.00 0.46 0.00 88 1009.0
20260504180006 60 357 2.6 7.0 0.00 0.46 0.00 88 1008.9
20260504175505 60 339 2.6 7.0 0.00 0.46 0.00 88 1008.8
20260504175006 60 1 1.7 7.0 0.00 0.46 0.00 88 1008.9
20260504174505 60 351 4.3 7.0 0.00 0.46 0.00 87 1008.9
20260504174005 60 12 4.3 7.8 0.00 0.46 0.00 87 1008.9
20260504173506 60 14 2.6 6.1 0.00 0.46 0.00 86 1008.9
20260504173005 60 356 0.9 6.1 0.00 0.46 0.00 86 1009.0
20260504172505 60 358 1.7 7.8 0.00 0.46 0.00 86 1008.9
20260504171506 61 10 3.5 7.8 0.00 0.46 0.00 84 1009.0
20260504170505 62 2 4.3 8.7 0.00 0.46 0.00 80 1009.0
20260504151006 64 326 4.3 8.7 0.00 0.47 0.00 73 1008.7
20260504150506 64 297 2.6 7.8 0.00 0.47 0.00 72 1008.8
20260504141006 63 344 3.5 10.4 0.00 0.54 0.00 69 1009.4
20260504140505 63 339 3.5 8.7 0.00 0.54 0.00 68 1009.5
20260504130505 60 294 5.2 8.7 0.00 0.74 0.00 78 1009.7
20260504110505 63 319 1.7 6.1 0.00 0.74 0.00 70 1009.7
20260504082006 58 306 1.7 4.3 0.00 0.74 0.00 88 1010.0
20260504081505 57 296 2.6 5.2 0.00 0.74 0.00 88 1009.7
20260504081006 57 272 2.6 4.3 0.00 0.74 0.00 89 1009.9
20260504080505 56 276 0.9 4.3 0.00 0.75 0.00 90 1009.8
20260504050504 50 104 0.0 0.9 0.00 0.90 0.00 99 1009.2
20260504050005 50 199 0.0 1.7 0.00 0.90 0.00 99 1009.3
20260504045505 50 320 0.9 1.7 0.00 0.90 0.00 99 1009.1
20260504045005 50 313 0.9 1.7 0.00 0.90 0.00 99 1009.1
20260504044504 50 313 0.9 1.7 0.00 0.90 0.00 99 1009.1
20260504044005 50 281 0.0 1.7 0.00 0.90 0.00 99 1009.3
20260504043005 50 300 0.0 0.9 0.00 0.90 0.00 99 1009.2
20260504042505 50 335 0.9 1.7 0.00 0.90 0.00 99 1009.2
20260504042005 50 272 0.9 1.7 0.00 0.90 0.00 99 1009.3
20260504041005 51 10 0.0 0.9 0.00 0.90 0.00 99 1009.4
20260504040504 51 176 0.0 1.7 0.00 0.90 0.00 99 1009.4
20260504040005 51 133 0.9 2.6 0.00 0.90 0.00 99 1009.3
20260504035505 51 95 1.7 2.6 0.00 0.90 0.00 99 1009.4
20260504034505 51 335 0.9 1.7 0.00 0.90 0.00 99 1009.5
20260504034005 51 84 0.0 1.7 0.00 0.90 0.00 99 1009.6
20260504033505 51 3 0.9 1.7 0.00 0.90 0.00 98 1009.5
20260504033005 51 124 0.9 1.7 0.00 0.90 0.00 98 1009.5
20260504032505 51 223 0.0 1.7 0.00 0.90 0.00 98 1009.3
20260504032005 51 23 0.0 0.9 0.00 0.90 0.00 98 1009.6
20260504031005 51 148 0.0 0.9 0.00 0.90 0.00 98 1009.5
20260504030505 51 333 0.0 1.7 0.00 0.90 0.00 98 1009.5
20260504030005 51 8 0.9 1.7 0.00 0.90 0.00 98 1009.3
20260504025505 51 20 0.0 0.9 0.00 0.90 0.00 97 1009.4
20260504025005 51 326 0.9 1.7 0.00 0.90 0.00 97 1009.6
20260504023504 52 302 0.0 1.7 0.00 0.90 0.00 97 1009.4
20260504023005 52 328 0.9 2.6 0.00 0.90 0.00 97 1009.5
20260504022504 52 309 0.9 2.6 0.00 0.90 0.00 97 1009.3
20260504022005 52 328 0.9 1.7 0.00 0.90 0.00 96 1009.3
20260504021005 52 224 0.0 1.7 0.00 0.90 0.00 96 1009.4
20260504020504 53 232 0.9 1.7 0.00 0.90 0.00 96 1009.5
20260504015504 53 153 0.9 1.7 0.00 0.90 0.00 95 1009.3
20260504015005 53 219 0.0 1.7 0.00 0.90 0.00 94 1009.2
20260504014505 53 261 0.0 2.6 0.00 0.90 0.00 94 1009.4
20260504014004 53 281 0.0 1.7 0.00 0.91 0.00 93 1009.3
20260504013504 53 253 0.9 1.7 0.00 0.91 0.00 93 1009.5
20260504013005 54 262 0.9 1.7 0.00 0.91 0.00 93 1009.5
20260504012505 53 250 0.0 1.7 0.00 0.91 0.00 93 1009.6
20260504012005 54 317 0.9 2.6 0.00 0.91 0.00 93 1009.5
20260504011504 54 330 0.9 1.7 0.00 0.91 0.00 93 1009.6
20260504011004 54 272 0.9 2.6 0.00 0.91 0.00 93 1009.5
20260504010505 54 292 0.9 2.6 0.00 0.91 0.00 92 1009.6
20260504005504 54 283 0.9 2.6 0.00 0.92 0.00 92 1009.6
20260504005004 55 294 0.9 2.6 0.00 0.92 0.00 92 1009.6
20260504004004 55 144 0.0 0.9 0.00 0.92 0.00 92 1009.7
20260504003504 55 122 0.0 0.9 0.00 0.92 0.00 92 1009.7
20260504002005 55 327 0.9 1.7 0.00 0.93 0.00 91 1009.7
20260504001504 55 312 0.9 1.7 0.00 0.93 0.00 91 1010.0
20260504001004 55 286 0.0 0.9 0.00 0.93 0.00 91 1009.9
20260504000004 55 285 0.0 1.7 0.00 0.93 0.00 91 1009.7
20260503235504 55 273 0.0 1.7 0.00 0.93 0.00 91 1009.7
20260503235005 55 295 0.0 0.9 0.00 0.93 0.00 90 1009.8
20260503234504 55 232 0.0 0.9 0.00 0.93 0.00 90 1009.9
20260503233505 56 323 0.0 1.7 0.00 0.93 0.00 89 1009.6
20260503233005 56 323 0.9 1.7 0.00 0.93 0.00 89 1009.7
20260503232504 56 336 0.9 4.3 0.00 0.93 0.00 89 1009.8
20260503232005 56 305 0.9 4.3 0.00 0.93 0.00 88 1009.7
20260503231504 57 305 1.7 4.3 0.00 0.93 0.00 88 1009.9
20260503231005 57 308 1.7 5.2 0.00 0.93 0.00 88 1009.8
20260503230504 57 313 1.7 4.3 0.00 0.93 0.00 87 1009.8
20260503230004 57 315 1.7 4.3 0.46 0.93 0.46 87 1009.7
20260503225504 57 315 1.7 4.3 0.00 0.93 0.46 87 1009.7
20260503225005 57 317 0.9 4.3 0.00 0.93 0.46 87 1010.0
20260503224504 57 320 1.7 4.3 0.00 0.93 0.46 87 1009.7
20260503224004 58 302 0.0 4.3 0.00 0.93 0.46 86 1009.9
20260503223504 58 314 2.6 6.1 0.00 1.01 0.46 86 1009.8
20260503223004 58 325 1.7 2.6 0.00 1.01 0.46 86 1010.0
20260503222505 58 304 1.7 4.3 0.00 1.01 0.46 86 1010.0
20260503222004 58 298 2.6 5.2 0.00 1.01 0.46 86 1010.1
20260503221005 58 283 0.9 2.6 0.00 1.02 0.46 88 1009.9
20260503220504 58 276 0.0 1.7 0.00 1.02 0.46 88 1010.0
20260503220005 58 276 0.9 1.7 0.00 0.56 0.00 88 1009.8
20260503215504 58 330 0.0 1.7 0.00 0.56 0.46 88 1009.9